Consulta les dades en temps real de l'estació meteorològica de Museu de l'Esquerda
| Hora UTC | 13:55 |
|---|---|
| Temperatura | 34.2 ºC |
| Humitat | 36.0 % |
| Pressió | 1019.4 hPa |
| Pluja | 0.0 mm |
| Velocitat vent | 12.9 km/h |
| Direcció vent | WSW |
| Radiació solar | 617.0 W/m² |
| Temperatura (ºC) | Humitat (%) | Pressió (hPa) | Velocitat vent (km/h) | Precipitació (mm) | Radiació solar (W/m²) | |||||||||||||
|---|---|---|---|---|---|---|---|---|---|---|---|---|---|---|---|---|---|---|
| Hora UTC | Aire | Humitat | Pressió | Vel. | Dir. | Vel. Max | Dir. | Intent. màx 5 min. | Rad. Sol. | |||||||||
| 00:05 | 18.3 | 86.0 | 1020.2 | 0.0 | SW | 0.0 | 0.0 | 0.0 | ||||||||||
| 00:10 | 18.3 | 87.0 | 1020.3 | 0.0 | N | 0.0 | 0.0 | 0.0 | ||||||||||
| 00:15 | 18.2 | 87.0 | 1020.3 | 0.0 | N | 0.0 | 0.0 | 0.0 | ||||||||||
| 00:20 | 18.2 | 86.0 | 1020.3 | 0.0 | SW | 0.0 | 0.0 | 0.0 | ||||||||||
| 00:25 | 18.2 | 87.0 | 1020.4 | 0.0 | SW | 0.0 | 0.0 | 0.0 | ||||||||||
| 00:30 | 18.2 | 87.0 | 1020.4 | 0.0 | SW | 0.0 | 0.0 | 0.0 | ||||||||||
| 00:35 | 18.2 | 87.0 | 1020.4 | 0.0 | SSW | 0.0 | 0.0 | 0.0 | ||||||||||
| 00:40 | 18.2 | 87.0 | 1020.3 | 0.0 | SSW | 0.0 | 0.0 | 0.0 | ||||||||||
| 00:45 | 18.2 | 87.0 | 1020.4 | 0.0 | SSW | 0.0 | 0.0 | 0.0 | ||||||||||
| 00:50 | 18.2 | 86.0 | 1020.4 | 0.0 | N | 0.0 | 0.0 | 0.0 | ||||||||||
| 00:55 | 18.2 | 86.0 | 1020.3 | 0.0 | SSW | 0.0 | 0.0 | 0.0 | ||||||||||
| 01:00 | 18.2 | 87.0 | 1020.3 | 0.0 | SSW | 0.0 | 0.0 | 0.0 | ||||||||||
| 01:05 | 18.3 | 87.0 | 1020.3 | 0.0 | SSW | 0.0 | 0.0 | 0.0 | ||||||||||
| 01:10 | 18.2 | 88.0 | 1020.2 | 0.0 | SSW | 0.0 | 0.0 | 0.0 | ||||||||||
| 01:15 | 18.1 | 88.0 | 1020.2 | 0.0 | SSW | 0.0 | 0.0 | 0.0 | ||||||||||
| 01:20 | 18.1 | 88.0 | 1020.2 | 0.0 | SSW | 0.0 | 0.0 | 0.0 | ||||||||||
| 01:25 | 18.0 | 88.0 | 1020.2 | 0.0 | N | 0.0 | 0.0 | 0.0 | ||||||||||
| 01:30 | 17.9 | 88.0 | 1020.2 | 0.0 | N | 0.0 | 0.0 | 0.0 | ||||||||||
| 01:35 | 17.8 | 88.0 | 1020.2 | 0.0 | SSW | 0.0 | 0.0 | 0.0 | ||||||||||
| 01:40 | 17.8 | 89.0 | 1020.2 | 0.0 | SSW | 0.0 | 0.0 | 0.0 | ||||||||||
| 01:45 | 17.8 | 89.0 | 1020.3 | 0.0 | SSW | 0.0 | 0.0 | 0.0 | ||||||||||
| 01:50 | 17.7 | 89.0 | 1020.3 | 0.0 | SSW | 0.0 | 0.0 | 0.0 | ||||||||||
| 01:55 | 17.7 | 89.0 | 1020.4 | 0.0 | SSW | 0.0 | 0.0 | 0.0 | ||||||||||
| 02:00 | 17.6 | 89.0 | 1020.3 | 0.0 | SSW | 0.0 | 0.0 | 0.0 | ||||||||||
| 02:05 | 17.5 | 89.0 | 1020.3 | 0.0 | SSW | 0.0 | 0.0 | 0.0 | ||||||||||
| 02:10 | 17.4 | 89.0 | 1020.3 | 0.0 | SSW | 0.0 | 0.0 | 0.0 | ||||||||||
| 02:15 | 17.3 | 89.0 | 1020.2 | 0.0 | SSW | 0.0 | 0.0 | 0.0 | ||||||||||
| 02:20 | 17.2 | 89.0 | 1020.2 | 0.0 | SSW | 0.0 | 0.0 | 0.0 | ||||||||||
| 02:25 | 17.2 | 90.0 | 1020.3 | 0.0 | SSW | 0.0 | 0.0 | 0.0 | ||||||||||
| 02:30 | 17.2 | 90.0 | 1020.3 | 0.0 | SSW | 0.0 | 0.0 | 0.0 | ||||||||||
| 02:35 | 17.2 | 90.0 | 1020.3 | 0.0 | SSW | 0.0 | 0.0 | 0.0 | ||||||||||
| 02:40 | 17.2 | 90.0 | 1020.4 | 0.0 | SSW | 0.0 | 0.0 | 0.0 | ||||||||||
| 02:45 | 17.2 | 90.0 | 1020.3 | 0.0 | SSW | 0.0 | 0.0 | 0.0 | ||||||||||
| 02:50 | 17.1 | 90.0 | 1020.3 | 0.0 | SSW | 0.0 | 0.0 | 0.0 | ||||||||||
| 02:55 | 17.1 | 91.0 | 1020.3 | 0.0 | SSW | 0.0 | 0.0 | 0.0 | ||||||||||
| 03:00 | 17.1 | 90.0 | 1020.4 | 0.0 | SSW | 0.0 | 0.0 | 0.0 | ||||||||||
| 03:05 | 17.1 | 91.0 | 1020.4 | 0.0 | SSW | 0.0 | 0.0 | 0.0 | ||||||||||
| 03:10 | 17.0 | 91.0 | 1020.5 | 0.0 | SSW | 0.0 | 0.0 | 0.0 | ||||||||||
| 03:15 | 16.9 | 91.0 | 1020.5 | 0.0 | SSW | 0.0 | 0.0 | 0.0 | ||||||||||
| 03:20 | 16.9 | 91.0 | 1020.4 | 0.0 | SSW | 0.0 | 0.0 | 0.0 | ||||||||||
| 03:25 | 16.8 | 91.0 | 1020.4 | 0.0 | SSW | 0.0 | 0.0 | 0.0 | ||||||||||
| 03:30 | 16.8 | 91.0 | 1020.5 | 0.0 | SSW | 0.0 | 0.0 | 0.0 | ||||||||||
| 03:35 | 16.7 | 91.0 | 1020.6 | 0.0 | SSW | 0.0 | 0.0 | 0.0 | ||||||||||
| 03:40 | 16.6 | 91.0 | 1020.5 | 0.0 | SSW | 0.0 | 0.0 | 0.0 | ||||||||||
| 03:45 | 16.4 | 91.0 | 1020.4 | 0.0 | SSW | 0.0 | 0.0 | 0.0 | ||||||||||
| 03:50 | 16.3 | 91.0 | 1020.5 | 0.0 | SSW | 0.0 | 0.0 | 0.0 | ||||||||||
| 03:55 | 16.3 | 91.0 | 1020.5 | 0.0 | SSW | 0.0 | 0.0 | 0.0 | ||||||||||
| 04:00 | 16.2 | 91.0 | 1020.4 | 0.0 | SSW | 0.0 | 0.0 | 0.0 | ||||||||||
| 04:05 | 16.2 | 91.0 | 1020.4 | 0.0 | SSW | 0.0 | 0.0 | 0.0 | ||||||||||
| 04:10 | 16.2 | 91.0 | 1020.4 | 0.0 | SSW | 0.0 | 0.0 | 0.0 | ||||||||||
| 04:15 | 16.2 | 91.0 | 1020.5 | 0.0 | SSW | 0.0 | 0.0 | 0.0 | ||||||||||
| 04:20 | 16.2 | 91.0 | 1020.5 | 0.0 | SSW | 0.0 | 0.0 | 0.0 | ||||||||||
| 04:25 | 16.3 | 92.0 | 1020.4 | 0.0 | SSW | 0.0 | 0.0 | 0.0 | ||||||||||
| 04:30 | 16.3 | 92.0 | 1020.4 | 0.0 | SSW | 0.0 | 0.0 | 0.0 | ||||||||||
| 04:35 | 16.2 | 92.0 | 1020.4 | 0.0 | SSW | 0.0 | 0.0 | 0.0 | ||||||||||
| 04:40 | 16.1 | 92.0 | 1020.5 | 0.0 | SSW | 0.0 | 0.0 | 0.0 | ||||||||||
| 04:45 | 16.1 | 92.0 | 1020.4 | 0.0 | SSW | 0.0 | 0.0 | 0.0 | ||||||||||
| 04:50 | 16.1 | 92.0 | 1020.4 | 0.0 | SSW | 0.0 | 0.0 | 0.0 | ||||||||||
| 04:55 | 16.0 | 92.0 | 1020.4 | 0.0 | SSW | 0.0 | 0.0 | 0.0 | ||||||||||
| 05:00 | 15.9 | 92.0 | 1020.3 | 0.0 | SSW | 0.0 | 0.0 | 0.0 | ||||||||||
| 05:05 | 15.9 | 92.0 | 1020.5 | 0.0 | SSW | 0.0 | 0.0 | 0.0 | ||||||||||
| 05:10 | 15.9 | 92.0 | 1020.5 | 0.0 | SSW | 0.0 | 0.0 | 0.0 | ||||||||||
| 05:15 | 15.9 | 92.0 | 1020.5 | 0.0 | SSW | 0.0 | 0.0 | 0.0 | ||||||||||
| 05:20 | 16.0 | 92.0 | 1020.5 | 0.0 | SSW | 0.0 | 0.0 | 0.0 | ||||||||||
| 05:25 | 16.0 | 92.0 | 1020.6 | 0.0 | SSW | 0.0 | 0.0 | 5.0 | ||||||||||
| 05:30 | 15.9 | 92.0 | 1020.6 | 0.0 | SSW | 0.0 | 0.0 | 9.0 | ||||||||||
| 05:35 | 15.9 | 92.0 | 1020.7 | 0.0 | SSW | 0.0 | 0.0 | 11.0 | ||||||||||
| 05:40 | 15.9 | 92.0 | 1020.6 | 0.0 | SSW | 0.0 | 0.0 | 14.0 | ||||||||||
| 05:45 | 15.9 | 92.0 | 1020.8 | 0.0 | SSW | 0.0 | 0.0 | 16.0 | ||||||||||
| 05:50 | 15.8 | 92.0 | 1020.8 | 0.0 | SSW | 0.0 | 0.0 | 19.0 | ||||||||||
| 05:55 | 15.8 | 92.0 | 1020.8 | 0.0 | SSW | 0.0 | 0.0 | 23.0 | ||||||||||
| 06:00 | 15.8 | 92.0 | 1020.8 | 0.0 | SSW | 0.0 | 0.0 | 39.0 | ||||||||||
| 06:05 | 15.8 | 93.0 | 1020.8 | 0.0 | SSW | 0.0 | 0.0 | 32.0 | ||||||||||
| 06:10 | 15.7 | 93.0 | 1021.0 | 0.0 | SSW | 0.0 | 0.0 | 40.0 | ||||||||||
| 06:15 | 15.7 | 93.0 | 1021.1 | 0.0 | SSW | 0.0 | 0.0 | 44.0 | ||||||||||
| 06:20 | 15.7 | 92.0 | 1021.1 | 0.0 | N | 0.0 | 0.0 | 42.0 | ||||||||||
| 06:25 | 15.8 | 93.0 | 1021.1 | 0.0 | N | 0.0 | 0.0 | 42.0 | ||||||||||
| 06:30 | 15.9 | 93.0 | 1021.3 | 0.0 | N | 0.0 | 0.0 | 70.0 | ||||||||||
| 06:35 | 15.9 | 93.0 | 1021.3 | 0.0 | SSW | 0.0 | 0.0 | 137.0 | ||||||||||
| 06:40 | 16.3 | 93.0 | 1021.3 | 0.0 | N | 0.0 | 0.0 | 149.0 | ||||||||||
| 06:45 | 16.6 | 93.0 | 1021.4 | 0.0 | N | 0.0 | 0.0 | 160.0 | ||||||||||
| 06:50 | 16.9 | 93.0 | 1021.3 | 0.0 | N | 0.0 | 0.0 | 178.0 | ||||||||||
| 06:55 | 17.2 | 93.0 | 1021.3 | 0.0 | N | 0.0 | 0.0 | 188.0 | ||||||||||
| 07:00 | 17.4 | 93.0 | 1021.3 | 0.0 | N | 0.0 | 0.0 | 200.0 | ||||||||||
| 07:05 | 17.7 | 92.0 | 1021.3 | 0.0 | N | 0.0 | 0.0 | 216.0 | ||||||||||
| 07:10 | 18.0 | 92.0 | 1021.3 | 0.0 | N | 0.0 | 0.0 | 229.0 | ||||||||||
| 07:15 | 18.4 | 90.0 | 1021.4 | 0.0 | N | 0.0 | 0.0 | 241.0 | ||||||||||
| 07:20 | 18.8 | 89.0 | 1021.3 | 0.0 | N | 0.0 | 0.0 | 260.0 | ||||||||||
| 07:25 | 19.1 | 88.0 | 1021.4 | 0.0 | N | 0.0 | 0.0 | 278.0 | ||||||||||
| 07:30 | 19.6 | 87.0 | 1021.4 | 0.0 | N | 0.0 | 0.0 | 295.0 | ||||||||||
| 07:35 | 19.8 | 84.0 | 1021.3 | 0.0 | SSW | 0.0 | 0.0 | 313.0 | ||||||||||
| 07:40 | 20.2 | 84.0 | 1021.4 | 0.0 | SSW | 0.0 | 0.0 | 325.0 | ||||||||||
| 07:45 | 20.5 | 81.0 | 1021.3 | 0.0 | SSW | 0.0 | 0.0 | 336.0 | ||||||||||
| 07:50 | 20.9 | 81.0 | 1021.3 | 0.0 | SSW | 0.0 | 0.0 | 346.0 | ||||||||||
| 07:55 | 20.9 | 80.0 | 1021.3 | 0.0 | SSW | 0.0 | 0.0 | 366.0 | ||||||||||
| 08:00 | 21.3 | 76.0 | 1021.4 | 0.0 | SSW | 0.0 | 0.0 | 381.0 | ||||||||||
| 08:05 | 21.5 | 76.0 | 1021.4 | 0.0 | SSW | 0.0 | 0.0 | 394.0 | ||||||||||
| 08:10 | 21.4 | 76.0 | 1021.4 | 0.0 | SSW | 0.0 | 0.0 | 410.0 | ||||||||||
| 08:15 | 21.6 | 77.0 | 1021.4 | 0.0 | SSW | 0.0 | 0.0 | 422.0 | ||||||||||
| 08:20 | 22.2 | 75.0 | 1021.4 | 0.0 | SSW | 0.0 | 0.0 | 434.0 | ||||||||||
| 08:25 | 22.4 | 73.0 | 1021.5 | 0.0 | SSW | 0.0 | 0.0 | 448.0 | ||||||||||
| 08:30 | 22.7 | 72.0 | 1021.4 | 0.0 | SSW | 0.0 | 0.0 | 462.0 | ||||||||||
| 08:35 | 22.9 | 72.0 | 1021.5 | 0.0 | SSW | 0.0 | 0.0 | 473.0 | ||||||||||
| 08:40 | 23.6 | 69.0 | 1021.5 | 0.0 | SSW | 0.0 | 0.0 | 485.0 | ||||||||||
| 08:45 | 23.8 | 67.0 | 1021.4 | 0.0 | SSW | 0.0 | 0.0 | 497.0 | ||||||||||
| 08:50 | 23.9 | 66.0 | 1021.4 | 0.0 | SSW | 0.0 | 0.0 | 510.0 | ||||||||||
| 08:55 | 24.3 | 65.0 | 1021.4 | 0.0 | SSW | 0.0 | 0.0 | 519.0 | ||||||||||
| 09:00 | 24.5 | 65.0 | 1021.5 | 0.0 | SSW | 0.0 | 0.0 | 533.0 | ||||||||||
| 09:05 | 24.9 | 63.0 | 1021.4 | 0.0 | SSW | 0.0 | 0.0 | 541.0 | ||||||||||
| 09:10 | 25.3 | 62.0 | 1021.4 | 0.0 | SSW | 0.0 | 0.0 | 555.0 | ||||||||||
| 09:15 | 25.5 | 60.0 | 1021.5 | 0.0 | SSW | 0.0 | 0.0 | 555.0 | ||||||||||
| 09:20 | 25.9 | 60.0 | 1021.4 | 0.0 | SSW | 0.0 | 0.0 | 564.0 | ||||||||||
| 09:25 | 26.3 | 59.0 | 1021.5 | 0.0 | SSW | 0.0 | 0.0 | 585.0 | ||||||||||
| 09:30 | 26.6 | 59.0 | 1021.5 | 0.0 | SSW | 0.0 | 0.0 | 594.0 | ||||||||||
| 09:35 | 26.9 | 58.0 | 1021.5 | 0.0 | W | 0.0 | 0.0 | 605.0 | ||||||||||
| 09:40 | 27.2 | 57.0 | 1021.5 | 0.0 | W | 0.0 | 0.0 | 613.0 | ||||||||||
| 09:45 | 27.1 | 53.0 | 1021.5 | 0.0 | WNW | 0.0 | 0.0 | 624.0 | ||||||||||
| 09:50 | 27.4 | 53.0 | 1021.5 | 0.0 | W | 0.0 | 0.0 | 628.0 | ||||||||||
| 09:55 | 27.9 | 53.0 | 1021.5 | 0.0 | W | 0.0 | 0.0 | 635.0 | ||||||||||
| 10:00 | 28.1 | 51.0 | 1021.4 | 0.0 | W | 0.0 | 0.0 | 645.0 | ||||||||||
| 10:05 | 28.3 | 50.0 | 1021.3 | 0.0 | SSW | 0.0 | 0.0 | 656.0 | ||||||||||
| 10:10 | 28.6 | 49.0 | 1021.3 | 0.0 | SSW | 0.0 | 0.0 | 636.0 | ||||||||||
| 10:15 | 29.5 | 48.0 | 1021.2 | 0.0 | SSW | 0.0 | 0.0 | 650.0 | ||||||||||
| 10:20 | 29.6 | 48.0 | 1021.2 | 0.0 | SW | 0.0 | 0.0 | 624.0 | ||||||||||
| 10:25 | 29.9 | 47.0 | 1021.1 | 0.0 | SW | 0.0 | 0.0 | 686.0 | ||||||||||
| 10:30 | 29.5 | 46.0 | 1021.1 | 0.0 | SW | 0.0 | 0.0 | 684.0 | ||||||||||
| 10:35 | 29.4 | 46.0 | 1021.1 | 0.0 | SSW | 1.6 | 0.0 | 703.0 | ||||||||||
| 10:40 | 29.8 | 46.0 | 1021.0 | 0.0 | SSW | 1.6 | 0.0 | 700.0 | ||||||||||
| 10:45 | 30.4 | 44.0 | 1021.0 | 0.0 | SSE | 0.0 | 0.0 | 701.0 | ||||||||||
| 10:50 | 30.4 | 42.0 | 1020.9 | 0.0 | SSE | 0.0 | 0.0 | 705.0 | ||||||||||
| 10:55 | 30.4 | 44.0 | 1020.9 | 0.0 | SE | 0.0 | 0.0 | 714.0 | ||||||||||
| 11:00 | 31.2 | 42.0 | 1020.8 | 0.0 | SSW | 1.6 | 0.0 | 686.0 | ||||||||||
| 11:05 | 31.3 | 41.0 | 1020.7 | 0.0 | N | 1.6 | 0.0 | 707.0 | ||||||||||
| 11:10 | 31.2 | 42.0 | 1020.6 | 0.0 | WSW | 1.6 | 0.0 | 703.0 | ||||||||||
| 11:15 | 31.6 | 42.0 | 1020.6 | 0.0 | WNW | 1.6 | 0.0 | 728.0 | ||||||||||
| 11:20 | 31.4 | 42.0 | 1020.6 | 0.0 | WNW | 1.6 | 0.0 | 731.0 | ||||||||||
| 11:25 | 32.1 | 41.0 | 1020.6 | 0.0 | W | 0.0 | 0.0 | 731.0 | ||||||||||
| 11:30 | 32.5 | 40.0 | 1020.4 | 1.6 | WSW | 1.6 | 0.0 | 735.0 | ||||||||||
| 11:35 | 32.3 | 40.0 | 1020.3 | 0.0 | SW | 8.0 | 0.0 | 731.0 | ||||||||||
| 11:40 | 32.6 | 40.0 | 1020.4 | 0.0 | SW | 8.0 | 0.0 | 735.0 | ||||||||||
| 11:45 | 33.0 | 37.0 | 1020.4 | 0.0 | WSW | 11.3 | 0.0 | 731.0 | ||||||||||
| 11:50 | 33.1 | 38.0 | 1020.2 | 3.2 | W | 11.3 | 0.0 | 738.0 | ||||||||||
| 11:55 | 33.6 | 35.0 | 1020.1 | 4.8 | SSE | 9.7 | 0.0 | 735.0 | ||||||||||
| 12:00 | 32.8 | 38.0 | 1020.1 | 3.2 | SW | 12.9 | 0.0 | 731.0 | ||||||||||
| 12:05 | 32.9 | 38.0 | 1020.0 | 1.6 | SE | 12.9 | 0.0 | 729.0 | ||||||||||
| 12:10 | 33.1 | 39.0 | 1020.0 | 4.8 | SW | 12.9 | 0.0 | 726.0 | ||||||||||
| 12:15 | 33.3 | 39.0 | 1019.9 | 0.0 | S | 9.7 | 0.0 | 728.0 | ||||||||||
| 12:20 | 33.8 | 37.0 | 1019.8 | 0.0 | SW | 16.1 | 0.0 | 722.0 | ||||||||||
| 12:25 | 33.7 | 38.0 | 1019.8 | 4.8 | S | 16.1 | 0.0 | 724.0 | ||||||||||
| 12:30 | 34.2 | 37.0 | 1019.6 | 1.6 | WSW | 16.1 | 0.0 | 717.0 | ||||||||||
| 12:35 | 34.6 | 35.0 | 1019.7 | 4.8 | SSW | 16.1 | 0.0 | 712.0 | ||||||||||
| 12:40 | 34.8 | 35.0 | 1019.7 | 9.7 | S | 17.7 | 0.0 | 708.0 | ||||||||||
| 12:45 | 34.9 | 34.0 | 1019.6 | 1.6 | SW | 17.7 | 0.0 | 703.0 | ||||||||||
| 12:50 | 35.3 | 32.0 | 1019.6 | 6.4 | S | 14.5 | 0.0 | 691.0 | ||||||||||
| 12:55 | 35.3 | 32.0 | 1019.5 | 8.0 | WSW | 14.5 | 0.0 | 694.0 | ||||||||||
| 13:00 | 35.5 | 32.0 | 1019.6 | 12.9 | WSW | 22.5 | 0.0 | 693.0 | ||||||||||
| 13:05 | 35.0 | 32.0 | 1019.4 | 9.7 | SSE | 22.5 | 0.0 | 686.0 | ||||||||||
| 13:10 | 35.1 | 32.0 | 1019.4 | 14.5 | SW | 19.3 | 0.0 | 677.0 | ||||||||||
| 13:15 | 35.2 | 33.0 | 1019.5 | 11.3 | SSW | 27.4 | 0.0 | 673.0 | ||||||||||
| 13:20 | 35.0 | 33.0 | 1019.4 | 11.3 | SW | 22.5 | 0.0 | 666.0 | ||||||||||
| 13:25 | 34.9 | 34.0 | 1019.5 | 16.1 | SW | 27.4 | 0.0 | 657.0 | ||||||||||
| 13:30 | 34.7 | 34.0 | 1019.5 | 8.0 | WNW | 27.4 | 0.0 | 652.0 | ||||||||||
| 13:35 | 34.4 | 34.0 | 1019.4 | 14.5 | WSW | 29.0 | 0.0 | 643.0 | ||||||||||
| 13:40 | 34.3 | 36.0 | 1019.5 | 16.1 | SW | 29.0 | 0.0 | 640.0 | ||||||||||
| 13:45 | 34.3 | 35.0 | 1019.5 | 24.1 | SE | 29.0 | 0.0 | 631.0 | ||||||||||
| 13:50 | 33.8 | 35.0 | 1019.5 | 4.8 | S | 30.6 | 0.0 | 628.0 | ||||||||||
| 13:55 | 34.2 | 36.0 | 1019.4 | 12.9 | WSW | 20.9 | 0.0 | 617.0 | ||||||||||
| Màxima | 35.5 | 93.0 | 1021.5 | 24.1 | SE | 30.6 | 0.0 | 738.0 | ||||||||||
| Mínima | 15.7 | 32.0 | 1019.4 | |||||||||||||||
| Total | 0.0 | |||||||||||||||||